CW2628 Weather Reports


time (UTC)temp
C
wind
direction
speed
KPH
gust
KPH
rain 1hr
cm
rain 24hr
cm
rain mn
cm
humidity
%
barometer
mb
20260507165809 18 246 4.8 19.3 0.00 0.00 0.00 57 1011.3
20260507165310 18 241 8.0 19.3 0.00 0.00 0.00 56 1011.2
20260507155809 20 212 1.6 11.3 0.00 0.00 0.00 49 1010.6
20260507155310 20 207 3.2 9.7 0.00 0.00 0.00 47 1010.6
20260507145310 21 202 3.2 12.9 0.00 0.00 0.00 42 1010.5
20260507135308 21 277 1.6 4.8 0.00 0.00 0.00 52 1010.8
20260507125309 20 218 1.6 4.8 0.00 0.00 0.00 49 1011.0
20260507115808 18 286 1.6 8.0 0.00 0.00 0.00 55 1011.4
20260507115309 18 255 1.6 8.0 0.00 0.00 0.00 56 1011.3
20260507095808 17 262 8.0 16.1 0.00 0.00 0.00 62 1011.8
20260507095308 17 263 4.8 16.1 0.00 0.00 0.00 64 1011.8
20260507085809 16 278 6.4 14.5 0.00 0.00 0.00 65 1011.4
20260507085308 16 272 8.0 14.5 0.00 0.00 0.00 63 1011.3
20260507075308 15 250 9.7 19.3 0.00 0.00 0.00 69 1010.8
20260507025808 13 251 3.2 11.3 0.00 0.00 0.00 74 1008.2
20260506235307 15 249 8.0 19.3 0.00 0.00 0.00 73 1006.9
20260506225807 15 251 3.2 9.7 0.00 0.00 0.00 73 1006.2
20260506215308 16 135 4.8 20.9 0.00 0.00 0.00 70 1005.1
20260506205307 17 155 9.7 27.4 0.00 0.00 0.00 68 1004.6
20260506195307 17 125 8.0 20.9 0.00 0.00 0.00 66 1004.3
20260506175807 20 140 16.1 25.7 0.00 0.00 0.00 59 1002.9